Terminal Aerodrome Forecast
Issued by NWS Memphis, TN

Home | Current Version | Previous Version | Text Only | Print | Product List | Glossary On
Versions: 1 2 3 4 5 6 7 8 9 10 11 12
000
FTUS44 KMEG 240500
TAFJBR
TAF
KJBR 240539Z 2406/2506 07005KT P6SM SKC
     FM241400 18010KT P6SM SCT050 SCT180
     FM242000 19017G27KT P6SM VCTS BKN040CB BKN150
      TEMPO 2423/2501 3SM -TSRA OVC035CB
     FM250400 24017G27KT P6SM OVC029=

USA.gov is the U.S. government's official web portal to all federal, state and local government web resources and services.